Location: Unspecified
(33.6682°S, 0.0000°E)
Time: 19:11:13
(UTC+00:00)

Tiros 1 despin weight - Pass Details

Date: 26 June 2019
Orbit: 594 x 642 km, 48.2° (Epoch: 20 July)

Event Time Altitude Azimuth Distance (km) Brightness Sun altitude
Rises 14:40:58 0° 227° (SW) 2,968 ? 21.7°
Reaches altitude 10° 14:43:31 10° 217° (SW) 2,057 ? 21.4°
Maximum altitude 14:47:49 33° 152° (SSE) 1,099 ? 20.8°
Drops below altitude 10° 14:52:05 10° 88° (E) 2,043 ? 20.2°
Sets 14:54:36 0° 78° (ENE) 2,945 ? 19.9°
